Regional Weather Roundup
Issued by NWS Raleigh/Durham, NC

Home | Current Version | Previous Version | Text Only | Print | Product List | Glossary On
Versions: 1 2 3 4 5 6 7 8 9 10 11 12 13 14 15 16 17 18 19 20 21 22 23 24 25 26 27
000
ASUS42 KRAH 162210
RWRRAH
NORTH CAROLINA WEATHER ROUNDUP
NATIONAL WEATHER SERVICE RALEIGH NC
600 PM EDT WED APR 16 2014

NOTE: "FAIR" INDICATES FEW OR NO CLOUDS BELOW 12,000 FEET WITH NO
SIGNIFICANT WEATHER AND/OR OBSTRUCTIONS TO VISIBILITY.

NCZ001-053-055-056-065-067-162300-
WESTERN NORTH CAROLINA

CITY           SKY/WX    TMP DP  RH WIND       PRES   REMARKS
ASHEVILLE      SUNNY     54  21  27 S10       30.27R
JEFFERSON      SUNNY     47  13  25 SE5       30.28R
MORGANTON      SUNNY     57  20  24 E5        30.35S
HICKORY        SUNNY     55  20  25 E3        30.31R
RUTHERFORDTON  SUNNY     56  25  30 SE12      30.31R
MOUNT AIRY     SUNNY     54  15  21 E8        30.33R
BOONE          SUNNY     46  12  25 SE7       30.29R
$$

NCZ021-022-025-041-071-084-088-162300-
CENTRAL NORTH CAROLINA

CITY           SKY/WX    TMP DP  RH WIND       PRES   REMARKS
CHARLOTTE      SUNNY     57  26  30 N8        30.32S
GREENSBORO     SUNNY     53  23  31 E8        30.34R
WINSTON-SALEM  SUNNY     53  19  26 E8        30.35R
RALEIGH-DURHAM SUNNY     54  25  32 E7        30.36R
FORT BRAGG     SUNNY     55  26  32 NE8       30.35R
FAYETTEVILLE   SUNNY     55  23  28 E9        30.34R
CHAPEL HILL    SUNNY     54  23  30 VRB7      30.36R
BURLINGTON     SUNNY     54  19  25 NE7       30.35R
LAURINBURG     SUNNY     54  25  32 E9        30.34S
$$

NCZ011-015-027-028-043-044-047-080-103-162300-
NORTHEASTERN NORTH CAROLINA

CITY           SKY/WX    TMP DP  RH WIND       PRES   REMARKS
GREENVILLE     SUNNY     54  27  35 N8        30.37R
WASHINGTON     SUNNY     53  19  27 NE12      30.37R
ELIZABETH CITY SUNNY     49  30  48 NE15      30.40R
MANTEO         SUNNY     44  27  51 NE17G29   30.40R
CAPE HATTERAS  PTSUNNY   45  34  65 NE15G28   30.37R
$$

NCZ078-087-090-091-093-098-101-162300-
SOUTHEASTERN NORTH CAROLINA

CITY           SKY/WX    TMP DP  RH WIND       PRES   REMARKS
LUMBERTON      SUNNY     55  28  35 E7        30.34R
GOLDSBORO      SUNNY     54  27  35 NE9G20    30.35R
KINSTON        SUNNY     55  27  33 NE9       30.37R
KENANSVILLE    SUNNY     53  26  35 NE7       30.37R
NEW BERN       SUNNY     53  29  39 E15       30.37R
CHERRY POINT   MOSUNNY   54  33  45 NE15      30.36R
BEAUFORT       SUNNY     51  30  44 NE14G21   30.36R
JACKSONVILLE   SUNNY     54  29  38 N12       30.35R
WILMINGTON     SUNNY     55  32  41 E10       30.34R
$$




USA.gov is the U.S. government's official web portal to all federal, state and local government web resources and services.